﻿測定場所 (Monitoring sites),日付 (Measurement date),時間 (Measurement time),線量率 最大値 (max) μGy/h,線量率 最小値 (min) μGy/h,線量率 平均値 (average) μGy/h,
江東 (Koto),2018-09-16,23:01～24:00,0.0372,0.0331,0.0350,
江東 (Koto),2018-09-16,22:01～23:00,0.0371,0.0325,0.0349,
江東 (Koto),2018-09-16,21:01～22:00,0.0370,0.0327,0.0349,
江東 (Koto),2018-09-16,20:01～21:00,0.0378,0.0324,0.0350,
江東 (Koto),2018-09-16,19:01～20:00,0.0370,0.0323,0.0347,
江東 (Koto),2018-09-16,18:01～19:00,0.0369,0.0324,0.0349,
江東 (Koto),2018-09-16,17:01～18:00,0.0369,0.0324,0.0348,
江東 (Koto),2018-09-16,16:01～17:00,0.0364,0.0328,0.0346,
江東 (Koto),2018-09-16,15:01～16:00,0.0378,0.0329,0.0348,
江東 (Koto),2018-09-16,14:01～15:00,0.0365,0.0326,0.0347,
江東 (Koto),2018-09-16,13:01～14:00,0.0368,0.0329,0.0347,
江東 (Koto),2018-09-16,12:01～13:00,0.0368,0.0322,0.0347,
江東 (Koto),2018-09-16,11:01～12:00,0.0361,0.0329,0.0344,
江東 (Koto),2018-09-16,10:01～11:00,0.0369,0.0319,0.0347,
江東 (Koto),2018-09-16,09:01～10:00,0.0374,0.0327,0.0347,
江東 (Koto),2018-09-16,08:01～09:00,0.0381,0.0321,0.0349,
江東 (Koto),2018-09-16,07:01～08:00,0.0375,0.0327,0.0349,
江東 (Koto),2018-09-16,06:01～07:00,0.0372,0.0324,0.0349,
江東 (Koto),2018-09-16,05:01～06:00,0.0373,0.0323,0.0349,
江東 (Koto),2018-09-16,04:01～05:00,0.0366,0.0331,0.0348,
江東 (Koto),2018-09-16,03:01～04:00,0.0373,0.0329,0.0349,
江東 (Koto),2018-09-16,02:01～03:00,0.0374,0.0328,0.0348,
江東 (Koto),2018-09-16,01:01～02:00,0.0367,0.0331,0.0346,
江東 (Koto),2018-09-16,00:01～01:00,0.0366,0.0318,0.0346,
江東 (Koto),2018-09-15,23:01～24:00,0.0366,0.0322,0.0345,
江東 (Koto),2018-09-15,22:01～23:00,0.0361,0.0325,0.0345,
江東 (Koto),2018-09-15,21:01～22:00,0.0365,0.0329,0.0344,
江東 (Koto),2018-09-15,20:01～21:00,0.0373,0.0321,0.0344,
江東 (Koto),2018-09-15,19:01～20:00,0.0363,0.0322,0.0344,
江東 (Koto),2018-09-15,18:01～19:00,0.0370,0.0325,0.0346,
江東 (Koto),2018-09-15,17:01～18:00,0.0368,0.0324,0.0346,
江東 (Koto),2018-09-15,16:01～17:00,0.0371,0.0326,0.0346,
江東 (Koto),2018-09-15,15:01～16:00,0.0364,0.0325,0.0347,
江東 (Koto),2018-09-15,14:01～15:00,0.0377,0.0336,0.0355,
江東 (Koto),2018-09-15,13:01～14:00,0.0383,0.0339,0.0363,
江東 (Koto),2018-09-15,12:01～13:00,0.0389,0.0344,0.0367,
江東 (Koto),2018-09-15,11:01～12:00,0.0387,0.0348,0.0369,
江東 (Koto),2018-09-15,10:01～11:00,0.0390,0.0348,0.0369,
江東 (Koto),2018-09-15,09:01～10:00,0.0391,0.0344,0.0372,
江東 (Koto),2018-09-15,08:01～09:00,0.0396,0.0352,0.0375,
江東 (Koto),2018-09-15,07:01～08:00,0.0381,0.0328,0.0353,
江東 (Koto),2018-09-15,06:01～07:00,0.0363,0.0316,0.0345,
江東 (Koto),2018-09-15,05:01～06:00,0.0361,0.0328,0.0345,
江東 (Koto),2018-09-15,04:01～05:00,0.0374,0.0327,0.0349,
江東 (Koto),2018-09-15,03:01～04:00,0.0373,0.0330,0.0351,
江東 (Koto),2018-09-15,02:01～03:00,0.0391,0.0340,0.0361,
江東 (Koto),2018-09-15,01:01～02:00,0.0383,0.0341,0.0364,
江東 (Koto),2018-09-15,00:01～01:00,0.0394,0.0341,0.0358,
江東 (Koto),2018-09-14,23:01～24:00,0.0379,0.0332,0.0355,
江東 (Koto),2018-09-14,22:01～23:00,0.0381,0.0341,0.0361,
江東 (Koto),2018-09-14,21:01～22:00,0.0381,0.0329,0.0357,
江東 (Koto),2018-09-14,20:01～21:00,0.0373,0.0320,0.0349,
江東 (Koto),2018-09-14,19:01～20:00,0.0371,0.0325,0.0347,
江東 (Koto),2018-09-14,18:01～19:00,0.0364,0.0326,0.0345,
江東 (Koto),2018-09-14,17:01～18:00,0.0365,0.0326,0.0345,
江東 (Koto),2018-09-14,16:01～17:00,0.0360,0.0328,0.0342,
江東 (Koto),2018-09-14,15:01～16:00,0.0367,0.0325,0.0345,
江東 (Koto),2018-09-14,14:01～15:00,0.0358,0.0326,0.0344,
江東 (Koto),2018-09-14,13:01～14:00,0.0365,0.0325,0.0343,
江東 (Koto),2018-09-14,12:01～13:00,0.0373,0.0331,0.0348,
江東 (Koto),2018-09-14,11:01～12:00,0.0366,0.0321,0.0348,
江東 (Koto),2018-09-14,10:01～11:00,0.0371,0.0324,0.0350,
江東 (Koto),2018-09-14,09:01～10:00,0.0389,0.0335,0.0355,
江東 (Koto),2018-09-14,08:01～09:00,0.0389,0.0341,0.0365,
江東 (Koto),2018-09-14,07:01～08:00,0.0384,0.0344,0.0364,
江東 (Koto),2018-09-14,06:01～07:00,0.0383,0.0341,0.0358,
江東 (Koto),2018-09-14,05:01～06:00,0.0377,0.0329,0.0354,
江東 (Koto),2018-09-14,04:01～05:00,0.0389,0.0323,0.0353,
江東 (Koto),2018-09-14,03:01～04:00,0.0375,0.0328,0.0353,
江東 (Koto),2018-09-14,02:01～03:00,0.0380,0.0331,0.0355,
江東 (Koto),2018-09-14,01:01～02:00,0.0377,0.0331,0.0354,
江東 (Koto),2018-09-14,00:01～01:00,0.0380,0.0333,0.0355,
江東 (Koto),2018-09-13,23:01～24:00,0.0377,0.0322,0.0354,
江東 (Koto),2018-09-13,22:01～23:00,0.0374,0.0329,0.0354,
江東 (Koto),2018-09-13,21:01～22:00,0.0380,0.0329,0.0355,
江東 (Koto),2018-09-13,20:01～21:00,0.0385,0.0329,0.0360,
江東 (Koto),2018-09-13,19:01～20:00,0.0370,0.0335,0.0354,
江東 (Koto),2018-09-13,18:01～19:00,0.0369,0.0329,0.0346,
江東 (Koto),2018-09-13,17:01～18:00,0.0373,0.0316,0.0346,
江東 (Koto),2018-09-13,16:01～17:00,0.0364,0.0328,0.0347,
江東 (Koto),2018-09-13,15:01～16:00,0.0384,0.0329,0.0347,
江東 (Koto),2018-09-13,14:01～15:00,0.0371,0.0329,0.0346,
江東 (Koto),2018-09-13,13:01～14:00,0.0366,0.0325,0.0347,
江東 (Koto),2018-09-13,12:01～13:00,0.0378,0.0326,0.0348,
江東 (Koto),2018-09-13,11:01～12:00,0.0367,0.0325,0.0347,
江東 (Koto),2018-09-13,10:01～11:00,0.0369,0.0329,0.0348,
江東 (Koto),2018-09-13,09:01～10:00,0.0371,0.0333,0.0350,
江東 (Koto),2018-09-13,08:01～09:00,0.0369,0.0329,0.0349,
江東 (Koto),2018-09-13,07:01～08:00,0.0380,0.0331,0.0349,
江東 (Koto),2018-09-13,06:01～07:00,0.0375,0.0335,0.0350,
江東 (Koto),2018-09-13,05:01～06:00,0.0370,0.0324,0.0350,
江東 (Koto),2018-09-13,04:01～05:00,0.0365,0.0329,0.0348,
江東 (Koto),2018-09-13,03:01～04:00,0.0368,0.0322,0.0348,
江東 (Koto),2018-09-13,02:01～03:00,0.0375,0.0330,0.0347,
江東 (Koto),2018-09-13,01:01～02:00,0.0369,0.0330,0.0348,
江東 (Koto),2018-09-13,00:01～01:00,0.0371,0.0335,0.0353,
江東 (Koto),2018-09-12,23:01～24:00,0.0367,0.0330,0.0349,
江東 (Koto),2018-09-12,22:01～23:00,0.0370,0.0334,0.0349,
江東 (Koto),2018-09-12,21:01～22:00,0.0376,0.0331,0.0353,
江東 (Koto),2018-09-12,20:01～21:00,0.0366,0.0324,0.0348,
江東 (Koto),2018-09-12,19:01～20:00,0.0374,0.0325,0.0349,
江東 (Koto),2018-09-12,18:01～19:00,0.0372,0.0325,0.0347,
江東 (Koto),2018-09-12,17:01～18:00,0.0368,0.0329,0.0346,
江東 (Koto),2018-09-12,16:01～17:00,0.0380,0.0328,0.0345,
江東 (Koto),2018-09-12,15:01～16:00,0.0368,0.0325,0.0347,
江東 (Koto),2018-09-12,14:01～15:00,0.0375,0.0328,0.0347,
江東 (Koto),2018-09-12,13:01～14:00,0.0366,0.0315,0.0344,
江東 (Koto),2018-09-12,12:01～13:00,0.0369,0.0324,0.0345,
江東 (Koto),2018-09-12,11:01～12:00,0.0371,0.0330,0.0347,
江東 (Koto),2018-09-12,10:01～11:00,0.0373,0.0322,0.0347,
江東 (Koto),2018-09-12,09:01～10:00,0.0366,0.0322,0.0345,
江東 (Koto),2018-09-12,08:01～09:00,0.0369,0.0326,0.0346,
江東 (Koto),2018-09-12,07:01～08:00,0.0369,0.0323,0.0349,
江東 (Koto),2018-09-12,06:01～07:00,0.0387,0.0333,0.0351,
江東 (Koto),2018-09-12,05:01～06:00,0.0369,0.0327,0.0346,
江東 (Koto),2018-09-12,04:01～05:00,0.0376,0.0325,0.0345,
江東 (Koto),2018-09-12,03:01～04:00,0.0365,0.0327,0.0347,
江東 (Koto),2018-09-12,02:01～03:00,0.0369,0.0328,0.0346,
江東 (Koto),2018-09-12,01:01～02:00,0.0362,0.0319,0.0344,
江東 (Koto),2018-09-12,00:01～01:00,0.0371,0.0324,0.0347,
江東 (Koto),2018-09-11,23:01～24:00,0.0362,0.0323,0.0344,
江東 (Koto),2018-09-11,22:01～23:00,0.0367,0.0323,0.0345,
江東 (Koto),2018-09-11,21:01～22:00,0.0371,0.0321,0.0348,
江東 (Koto),2018-09-11,20:01～21:00,0.0365,0.0328,0.0346,
江東 (Koto),2018-09-11,19:01～20:00,0.0364,0.0325,0.0345,
江東 (Koto),2018-09-11,18:01～19:00,0.0364,0.0326,0.0344,
江東 (Koto),2018-09-11,17:01～18:00,0.0366,0.0324,0.0345,
江東 (Koto),2018-09-11,16:01～17:00,0.0378,0.0317,0.0345,
江東 (Koto),2018-09-11,15:01～16:00,0.0363,0.0321,0.0345,
江東 (Koto),2018-09-11,14:01～15:00,0.0367,0.0321,0.0345,
江東 (Koto),2018-09-11,13:01～14:00,0.0368,0.0330,0.0347,
江東 (Koto),2018-09-11,12:01～13:00,0.0363,0.0329,0.0347,
江東 (Koto),2018-09-11,11:01～12:00,0.0368,0.0327,0.0347,
江東 (Koto),2018-09-11,10:01～11:00,0.0373,0.0322,0.0346,
江東 (Koto),2018-09-11,09:01～10:00,0.0364,0.0314,0.0344,
江東 (Koto),2018-09-11,08:01～09:00,0.0366,0.0323,0.0347,
江東 (Koto),2018-09-11,07:01～08:00,0.0365,0.0330,0.0347,
江東 (Koto),2018-09-11,06:01～07:00,0.0363,0.0332,0.0348,
江東 (Koto),2018-09-11,05:01～06:00,0.0368,0.0332,0.0347,
江東 (Koto),2018-09-11,04:01～05:00,0.0368,0.0329,0.0349,
江東 (Koto),2018-09-11,03:01～04:00,0.0387,0.0335,0.0355,
江東 (Koto),2018-09-11,02:01～03:00,0.0393,0.0341,0.0371,
江東 (Koto),2018-09-11,01:01～02:00,0.0393,0.0353,0.0375,
江東 (Koto),2018-09-11,00:01～01:00,0.0384,0.0341,0.0358,
江東 (Koto),2018-09-10,23:01～24:00,0.0382,0.0336,0.0359,
江東 (Koto),2018-09-10,22:01～23:00,0.0392,0.0353,0.0368,
江東 (Koto),2018-09-10,21:01～22:00,0.0390,0.0343,0.0366,
江東 (Koto),2018-09-10,20:01～21:00,0.0399,0.0354,0.0376,
江東 (Koto),2018-09-10,19:01～20:00,0.0392,0.0345,0.0366,
江東 (Koto),2018-09-10,18:01～19:00,0.0384,0.0331,0.0355,
江東 (Koto),2018-09-10,17:01～18:00,0.0374,0.0337,0.0354,
江東 (Koto),2018-09-10,16:01～17:00,0.0375,0.0332,0.0355,
江東 (Koto),2018-09-10,15:01～16:00,0.0377,0.0336,0.0352,
江東 (Koto),2018-09-10,14:01～15:00,0.0387,0.0333,0.0353,
江東 (Koto),2018-09-10,13:01～14:00,0.0380,0.0329,0.0354,
江東 (Koto),2018-09-10,12:01～13:00,0.0370,0.0322,0.0348,
江東 (Koto),2018-09-10,11:01～12:00,0.0372,0.0330,0.0350,
江東 (Koto),2018-09-10,10:01～11:00,0.0381,0.0328,0.0352,
江東 (Koto),2018-09-10,09:01～10:00,0.0371,0.0326,0.0351,
江東 (Koto),2018-09-10,08:01～09:00,0.0377,0.0329,0.0351,
江東 (Koto),2018-09-10,07:01～08:00,0.0373,0.0332,0.0352,
江東 (Koto),2018-09-10,06:01～07:00,0.0378,0.0327,0.0351,
江東 (Koto),2018-09-10,05:01～06:00,0.0377,0.0322,0.0351,
江東 (Koto),2018-09-10,04:01～05:00,0.0373,0.0333,0.0353,
江東 (Koto),2018-09-10,03:01～04:00,0.0376,0.0328,0.0351,
江東 (Koto),2018-09-10,02:01～03:00,0.0374,0.0331,0.0350,
江東 (Koto),2018-09-10,01:01～02:00,0.0368,0.0328,0.0349,
江東 (Koto),2018-09-10,00:01～01:00,0.0377,0.0328,0.0350,
